Location: Vienna
(48.2082°N, 16.3738°E)
Time: 22:11:22
(UTC+02:00)

ISS - Pass Details

Date: 16 July 2018
Orbit: 402 x 408 km, 51.6° (Epoch: 20 July)

Event Time Altitude Azimuth Distance (km) Brightness Sun altitude
Rises 04:06:32 0° 290° (WNW) 2,333 -0.2 -8.9°
Reaches altitude 10° 04:08:39 10° 294° (WNW) 1,472 -1.2 -8.7°
Maximum altitude 04:11:55 60° 15° (NNE) 474 -3.2 -8.3°
Drops below altitude 10° 04:15:11 10° 96° (E) 1,470 -0.4 -7.9°
Sets 04:17:17 0° 101° (E) 2,330 0.6 -7.7°
